SCOUT X-4 DEB, 3750

Orbit data source: Space-Track

SCOUT X-4 DEB, 3750 is space debris in LEO originally from a launch on Thu, 19 Dec 1963 UTC launched from the Air Force Western Test Range (AFWTR). Debris objects in space refer to the collection of defunct objects orbiting the Earth. Examples of debris include non-operational satellites, rocket bodies, and fragments generated from explosions, collisions, or faulty payload assembly.

Loading next visibility...
Identifier
3750, 1963-053J
Orbit
LEO
Last TLE update
9 hours ago
Origin
Manufacturer
Unknown
Mission
Spacecraft
Bus & Motor
Unknown
Mass
Unknown
Launch date (UTC)
1963-12-19 (62 years ago)
Launch vehicle
Unknown
Launch site
Air Force Western Test Range (AFWTR)
Object type
Payload
Rocket body
Debris
Shape & HBR
Unknown
Radar Cross Section
Small (<0.1 m²)

Expand to show TLE details & history

TLE from 9 hours ago
0 SCOUT X-4 DEB
1  3750U 63053J   25182.37571830  .00017748  00000-0  24638-2 0  9996
2  3750  78.5734 165.3178 0201020 287.3042  70.6245 14.64819216756805
Epoch: 2025-07-01T09:01Z
TLE epoch observation values (Epoch: 2025-07-01T09:01:02.061Z)
Latitude
-0°
Longitude
110.38714°
Altitude
636.03 km
Speed
7.564 km/s
True Right ascension
11h 01m 16s
True Declination
0° 00' 00"
Sunlit
Object was in daylight at epoch
Visualization orbit readout
Latitude
71.67612°
Longitude
-107.49296°
Altitude
831.615 km
Speed
7.368 km/s
Apparent Right ascension
18h 19m 26s
Apparent Declination
22° 26' 55"
Sunlit
Object is in daylight
Visualization observer readout
Local Sidereal Time
05:21:34
Azimuth
345.09° N
Elevation
-26.191°
Doppler factor
1
Orbital elements
Apogee altitude
816.686 km
Perigee altitude
533.126 km
Semi-major axis
7,053.043 km
Eccentricity
0.0201
Inclination
78.5734°
RAAN
165.3178°
Arg. of periapsis
287.3042°
True anomaly
Unknown
Mean anomaly
70.6245°
Eccentric anomaly
Unknown
Mean motion
3.66419 °/min
Orbital period
98.25 mins
BSTAR
0.0024638
Loading maneuver chart data...
Loading SW <> Apogee altitude chart data...
Loading historical data...
Loading historical data...
Loading historical data...
Loading historical data...
Loading historical data...
Loading historical data...
Loading historical data...

SCOUT X-4 DEB Visibility forecast

Observer location: undefined°, undefined°

Span
Click to sort rows by Start time (UTC) header in descending order
Start Az.
Max El. time (UTC)
Max El. Az.
Max El.
End time (UTC)
End Az.
9 mins2025-07-01 23:52:55.537Z192.473° SSW2025-07-01 23:57:55.537Z3.654° NNE43.777°2025-07-02 00:01:55.537Z12.045° NNE
10 mins2025-07-02 10:09:55.537Z354.789° N2025-07-02 10:14:55.537Z66.171° ENE40.973°2025-07-02 10:19:55.537Z154.259° SSE
5 mins2025-07-02 11:51:55.537Z297.73° NW2025-07-02 11:53:55.537Z273.225° WNW15.35°2025-07-02 11:56:55.537Z237.441° WSW
|